Regional Weather Roundup
Issued by NWS

Home | Current Version | Previous Version | Graphics & Text | Print | Product List | Glossary On
Versions: 1 2 3 4 5 6 7 8 9 10 11 12 13 14 15 16 17 18 19 20 21 22 23 24 25 26 27 28 29 30 31 32 33 34 35 36 37 38 39 40 41 42 43 44 45 46 47 48 49 50
380
ASUS43 KFSD 260610
RWRSD

WEATHER ROUNDUP FOR SOUTH DAKOTA
NATIONAL WEATHER SERVICE SIOUX FALLS SD
100 AM CDT MON SEP 26 2016

NOTE: "FAIR" INDICATES FEW OR NO CLOUDS BELOW 12,000 FEET WITH NO
SIGNIFICANT WEATHER AND/OR OBSTRUCTIONS TO VISIBILITY.


SDZ001>005-009-010-012>017-260700-
NORTHWEST AND NORTH CENTRAL SOUTH DAKOTA

CITY           SKY/WX    TMP DP  RH WIND       PRES   REMARKS
BUFFALO          N/A     47  37  68 W8        30.21S
FAITH            N/A     46  38  73 W6        30.25
MOBRIDGE       CLEAR     46  35  65 NW7       30.17F
$$

SDZ012>016-024>037-041>051-057-063-072>074-260700-
SOUTHWEST AND SOUTH CENTRAL SOUTH DAKOTA

CITY           SKY/WX    TMP DP  RH WIND       PRES   REMARKS
RAPID CTY ARPT CLEAR     43  34  70 W7        30.32S
PIERRE         CLEAR     51  35  54 W10       30.22S
CUSTER         CLEAR     41  28  60 W5        30.38F
ELLSWORTH AFB  CLEAR     42  34  72 W7        30.31S
PHILIP         CLEAR     39  34  82 W7        30.28S
PINE RIDGE     CLEAR     33  28  81 E3        30.34S
WINNER         FAIR      49  34  56 W8        30.26F
$$

SDZ004>011-016>023-039-040-260700-
NORTHEAST SOUTH DAKOTA

CITY           SKY/WX    TMP DP  RH WIND       PRES   REMARKS
ABERDEEN       CLEAR     43  34  70 W8        30.14S
WATERTOWN      CLEAR     51  37  58 W10       30.10F
BROOKINGS      CLEAR     49  36  61 NW12      30.13S
SISSETON         N/A     53  36  52 NW15      30.04F
$$

SDZ017-020-022-023-036>040-048>070-260700-
SOUTHEAST SOUTH DAKOTA

CITY           SKY/WX    TMP DP  RH WIND       PRES   REMARKS
SIOUX FALLS    CLEAR     48  38  68 W6        30.16S
HURON          CLEAR     47  33  58 W9        30.17S
CHAMBERLAIN    CLEAR     48  35  59 NW5       30.23F
MITCHELL       CLEAR     48  33  56 W8        30.20S
YANKTON        CLEAR     52  34  50 W10       30.20S
$$

ABBREVIATIONS USED IN REMARKS
   TC - TEMPERATURE IN CELSIUS
  WCI - WIND CHILL INDEX
   HX - HEAT INDEX
  VSB - VISIBILITY





USA.gov is the U.S. government's official web portal to all federal, state and local government web resources and services.